Weather in Akatsiya

Russia / Kemerovo Oblast     55°44′08″N   85°21′48″E
temp.,
°C
wind,
m/s
gust,
m/s
humid.,
%
clouds,
%
prec.,
mm/h
press.,
hPa
HPBL,
m
19 june, sat
sat1901:00+16sse310915 0.0 1001145
04:00+16sse389322 0.3 1000115
07:00+17se5118838 0.3 999191
10:00+23s477676 0.0 998557
13:00+26s576669 0.0 9981041
16:00+23wsw4780100 1.7 998148
19:00+20wsw2488100 5.5 99888
22:00+14nw61094100 1.4 1000544
20 june, sun
sun2001:00+10nw5894100 1.4 1003482
04:00+8wnw5890100 0.0 1004438
07:00+8wnw5787100 0.1 1006597
10:00+8wnw4579100 0.1 1007854
13:00+10w4573100 0.1 10081011
16:00+11w2366100 0.0 10081166
19:00+12s3573100 0.0 1009578
22:00+10ssw4876100 0.1 1010355
21 june, mon
mon2101:00+8s388578 0.1 1010194
04:00+8s498194 0.0 1010288
07:00+8sse58870 0.0 1009305
10:00+13se67709 0.0 1008906
13:00+15sse796281 0.1 10071721
16:00+10s51189100 0.7 1008594
19:00+12sse6109197 1.1 1008684
22:00+11sse5109124 0.1 1007326
22 june, tue
tue2201:00+8se36979 0.9 1007121
04:00+7sse2296100 0.0 100733
07:00+10sse1293100 0.0 1007113
10:00+14se1282100 0.6 1006603
13:00+11se2394100 5.9 1007130
16:00+10sw3597100 8.6 1008257
19:00+9sw3498100 15.1 1009251
22:00+9ssw2498100 0.7 1010172
23 june, wed
wed2301:00+9s3798100 1.8 1010232
04:00+9ssw4109798 0.1 1010347
07:00+10sw5109698 0.1 1011428
10:00+12sw4589100 0.1 1012614
13:00+13wsw3385100 2.3 1012704
16:00+15wsw237851 1.7 1012999
19:00+15sw238262 3.0 1012677
22:00+11sw229078 0.8 101212